Weather History for PAVL - April, 2013

Change the Weather History Date:

Sunday, April 28, 2013

  Actual Average Record
Temperature  
Mean Temperature 18 °F -  
Max Temperature 24 °F - - ()
Min Temperature 12 °F - - ()
Degree Days  
Heating Degree Days 47    
Moisture  
Dew Point 19 °F    
Average Humidity 93    
Maximum Humidity 100    
Minimum Humidity 86    
Precipitation  
Precipitation 0.00 in - - ()
Sea Level Pressure  
Sea Level Pressure 30.35 in    
Wind  
Wind Speed 10 mph (WNW)    
Max Wind Speed 14 mph    
Max Gust Speed -    
Visibility 6 miles    
Events Fog    
T = Trace of Precipitation, MM = Missing Value Source: NWS Daily Summary

Daily Weather History Graph

Daily Weather History Graph

Search for Another Location

Airport or City:

Trip Planner

Search our weather history database for the weather conditions in past years. The results will help you decide how hot, cold, wet, or windy it might be!

Date:

Astronomy

Apr. 28, 2013 Rise Set
Actual Time 6:09 AM AKDT 11:44 PM AKDT
Civil Twilight 4:35 AM AKDT 1:23 AM AKDT
Nautical Twilight Sun does not set Sun does not set
Astronomical Twilight Sun does not set Sun does not set
Moon 3:46 AM AKDT (4/28) 7:15 AM AKDT (4/28)
Length of Visible Light 20h 47m
Length of Day
17h 35m
Waning Gibbous, 87% of the Moon is Illuminated
Apr 28
Waning Gibbous
May 2
Last Quarter
May 9
New
May 17
First Quarter
May 24
Full

Hourly Weather History & Observations

Time (AKDT) Temp. Windchill Dew Point Humidity Pressure Visibility Wind Dir Wind Speed Gust Speed Precip Events Conditions
12:53 AM 12.9 °F -0.2 °F 10.0 °F 88% 30.40 in 9.0 mi NW 10.4 mph - N/A   Clear
1:53 AM 12.9 °F 0.7 °F 10.9 °F 92% 30.40 in 9.0 mi WNW 9.2 mph - N/A   Clear
2:53 AM 15.1 °F 1.1 °F 12.0 °F 88% 30.40 in 9.0 mi NW 12.7 mph - N/A   Overcast
3:53 AM 17.1 °F 8.7 °F 15.1 °F 92% 30.41 in 8.0 mi NW 5.8 mph - N/A   Overcast
4:01 AM 17.6 °F 3.7 °F 15.8 °F 93% 30.39 in 8.0 mi NW 13.8 mph - N/A   Overcast
4:53 AM 17.1 °F 5.0 °F 15.1 °F 92% 30.40 in 8.0 mi NW 10.4 mph - N/A   Overcast
5:33 AM 17.6 °F 6.4 °F 15.8 °F 93% 30.40 in 7.0 mi NW 9.2 mph - N/A   Overcast
5:46 AM 17.6 °F 7.3 °F 15.8 °F 93% 30.39 in 7.0 mi NW 8.1 mph - N/A   Overcast
5:53 AM 17.1 °F 5.0 °F 16.0 °F 96% 30.39 in 6.0 mi NW 10.4 mph - N/A   Overcast
6:14 AM 17.6 °F 5.7 °F 17.6 °F 100% 30.39 in 1.8 mi NW 10.4 mph - N/A   Overcast
6:21 AM 17.6 °F 4.3 °F 17.6 °F 100% 30.39 in 2.0 mi NW 12.7 mph - N/A   Overcast
6:30 AM 17.6 °F 5.0 °F 17.6 °F 100% 30.39 in 4.0 mi NW 11.5 mph - N/A   Overcast
6:53 AM 18.0 °F 7.7 °F 17.1 °F 96% 30.39 in 5.0 mi NW 8.1 mph - N/A   Overcast
7:53 AM 19.0 °F 11.1 °F 18.0 °F 96% 30.38 in 6.0 mi NW 5.8 mph - N/A   Overcast
8:21 AM 19.4 °F 12.8 °F 17.6 °F 93% 30.37 in 5.0 mi NW 4.6 mph - N/A   Overcast
8:53 AM 19.9 °F 10.1 °F 19.0 °F 96% 30.37 in 2.0 mi WNW 8.1 mph - N/A   Overcast
9:00 AM 19.4 °F 12.8 °F 19.4 °F 100% 30.37 in 1.2 mi NW 4.6 mph - N/A   Overcast
9:11 AM 19.4 °F 11.5 °F 19.4 °F 100% 30.37 in 0.5 mi WNW 5.8 mph - N/A Fog Light Freezing Fog
9:18 AM 19.4 °F 11.5 °F 19.4 °F 100% 30.37 in 0.5 mi NW 5.8 mph - N/A Fog Light Freezing Fog
9:53 AM 21.0 °F 11.4 °F 21.0 °F 100% 30.37 in 0.5 mi NW 8.1 mph - N/A Fog Light Freezing Fog
10:08 AM 21.2 °F 11.7 °F 19.4 °F 93% 30.36 in 1.0 mi NW 8.1 mph - N/A   Overcast
10:22 AM 21.2 °F 11.7 °F 21.2 °F 100% 30.36 in 3.0 mi WNW 8.1 mph - N/A   Overcast
10:53 AM 21.0 °F 9.3 °F 19.9 °F 96% 30.36 in 7.0 mi WNW 11.5 mph - N/A   Overcast
11:37 AM 21.2 °F 10.9 °F 21.2 °F 100% 30.36 in 6.0 mi WNW 9.2 mph - N/A   Overcast
11:53 AM 21.9 °F 12.5 °F 19.9 °F 92% 30.36 in 5.0 mi WNW 8.1 mph - N/A   Overcast
12:53 PM 23.0 °F 13.1 °F 21.0 °F 92% 30.36 in 4.0 mi WNW 9.2 mph - N/A   Overcast
12:59 PM 23.0 °F 12.4 °F 19.4 °F 86% 30.35 in 5.0 mi WNW 10.4 mph - N/A   Overcast
1:53 PM 23.0 °F 12.4 °F 21.0 °F 92% 30.35 in 6.0 mi West 10.4 mph - N/A   Overcast
1:59 PM 23.0 °F 13.1 °F 21.2 °F 93% 30.35 in 7.0 mi West 9.2 mph - N/A   Overcast
2:20 PM 23.0 °F 12.4 °F 21.2 °F 93% 30.34 in 6.0 mi West 10.4 mph - N/A   Overcast
2:53 PM 23.0 °F 12.4 °F 21.0 °F 92% 30.34 in 6.0 mi West 10.4 mph - N/A   Overcast
2:59 PM 24.8 °F 13.4 °F 21.2 °F 86% 30.34 in 6.0 mi West 12.7 mph - N/A   Overcast
3:24 PM 23.0 °F 11.1 °F 19.4 °F 86% 30.34 in 7.0 mi West 12.7 mph - N/A   Overcast
3:53 PM 23.0 °F 11.1 °F 19.9 °F 88% 30.33 in 6.0 mi West 12.7 mph - N/A   Overcast
4:53 PM 23.0 °F 11.7 °F 21.0 °F 92% 30.32 in 6.0 mi WNW 11.5 mph - N/A   Overcast
5:02 PM 23.0 °F 11.7 °F 19.4 °F 86% 30.32 in 6.0 mi West 11.5 mph - N/A   Overcast
5:53 PM 23.0 °F 11.7 °F 19.9 °F 88% 30.31 in 7.0 mi WNW 11.5 mph - N/A   Overcast
6:53 PM 23.0 °F 12.4 °F 19.9 °F 88% 30.31 in 8.0 mi West 10.4 mph - N/A   Overcast
7:03 PM 23.0 °F 11.7 °F 19.4 °F 86% 30.30 in 8.0 mi West 11.5 mph - N/A   Overcast
7:40 PM 23.0 °F 11.7 °F 19.4 °F 86% 30.29 in 8.0 mi West 11.5 mph - N/A   Overcast
7:53 PM 23.0 °F 12.4 °F 19.9 °F 88% 30.29 in 8.0 mi West 10.4 mph - N/A   Overcast
8:09 PM 23.0 °F 13.1 °F 19.4 °F 86% 30.29 in 8.0 mi West 9.2 mph - N/A   Overcast
8:53 PM 23.0 °F 12.4 °F 19.9 °F 88% 30.28 in 8.0 mi West 10.4 mph - N/A   Overcast
9:53 PM 23.0 °F 12.4 °F 19.9 °F 88% 30.28 in 7.0 mi West 10.4 mph - N/A   Overcast
10:53 PM 21.9 °F 12.5 °F 21.0 °F 96% 30.26 in 7.0 mi West 8.1 mph - N/A   Overcast
11:11 PM 21.2 °F 12.6 °F 21.2 °F 100% 30.26 in 7.0 mi WNW 6.9 mph - N/A   Overcast
11:53 PM 21.9 °F 14.5 °F 19.0 °F 89% 30.25 in 7.0 mi NW 5.8 mph - N/A   Overcast